sat.trackr.live / text

‹ back to catalog

COSMOS 2489 (RODNIK-S 8)

NORAD 39484 · 2013-076B

PAYLOAD ACTIVE UNKNOWN

§ Identity

Operator
Country
CIS
Launch date
2013-12-25
Launch site
PLMSC
Launch vehicle
Mass (kg)
RCS (m²)
1.70

External: N2YO · Heavens-Above · Gunter

§ Orbital elements

Epoch: 2026-05-25T03:38:26.277792Z

Period
115.86 min
Inclination
82.4882°
Eccentricity
0.0022241
Mean motion
12.42879281 rev/d
Perigee alt
1,476.9 km
Apogee alt
1,511.9 km
Semi-major
7,872.6 km
B*
-6.9035e-5
RAAN
184.4183°
Arg perigee
143.2268°
Mean anomaly
217.0342°
Rev number
56,308

§ Raw data

COSMOS 2489 (RODNIK-S 8)1 39484U 13076B   26145.15169303  .00000000  00000+0 -69035-4 0  99982 39484  82.4882 184.4183 0022241 143.2268 217.0342 12.42879281563083

JSON: /api/v1/satellites/39484 · /tle

For live sub-satellite position, see the globe view (requires WebGL).

§ Visibility from observer

Set your observer location to see the next 7 days of passes ≥ 10°. The values pass through the URL so the page stays shareable.

No JS? Fill the form by hand. The geolocation button needs JavaScript.

§ Radio — SatNOGS DB

ModeDescriptionDownlinkUplink
FM 265.95 265.950 MHz
FM UHF Unknown 387.175 MHz
FM UHF Unknown 388.687 MHz

3 transmitters · refreshed weekly from db.satnogs.org